Satellite: NOAA-17
Catalog number: 27453
Epoch time:      11313.73355991
Element set:    0480
Inclination:      098.3636 deg
RA of node:       346.6438 deg
Eccentricity:    0.0012709
Arg of perigee:   083.1426 deg
Mean anomaly:     277.1199 deg
Mean motion:   14.24341701 rev/day
Decay rate:       1.53e-06 rev/day^2
Epoch rev:           48737
Checksum:              315

Satellite: NOAA-18
Catalog number: 28654
Epoch time:      11313.76962146
Element set:    0957
Inclination:      099.0154 deg
RA of node:       265.4022 deg
Eccentricity:    0.0014979
Arg of perigee:   057.0072 deg
Mean anomaly:     303.2520 deg
Mean motion:   14.11547208 rev/day
Decay rate:       5.19e-06 rev/day^2
Epoch rev:           33346
Checksum:              297

Satellite: NOAA-19
Catalog number: 33591
Epoch time:      11313.79907159
Element set:    0148
Inclination:      098.8408 deg
RA of node:       251.5910 deg
Eccentricity:    0.0013367
Arg of perigee:   285.9054 deg
Mean anomaly:     074.0642 deg
Mean motion:   14.11237486 rev/day
Decay rate:       3.88e-06 rev/day^2
Epoch rev:           14192
Checksum:              319

/EX
SB KEPS @ AMSAT  $ORB11314.M
Orbital Elements  11314.MISC

HR AMSAT ORBITAL ELEMENTS FOR MANNED AND MISCELLANEOUS SATELLITES
FROM WA5QGD FORT WORTH,TX November 10, 2011
Send Subscribe/unsubscribe to KEPS at http://www.amsat.org/mailman/listinfo/kep
BID: ORB11314.M
TO ALL RADIO AMATEURS BT

Satellite: HUBBLE
Catalog number: 20580
Epoch time:      11313.95063566
Element set:     884
Inclination:      028.4689 deg
RA of node:       144.0809 deg
Eccentricity:    0.0003298
Arg of perigee:   231.7151 deg
Mean anomaly:     128.3185 deg
Mean motion:   15.01768669 rev/day
Decay rate:      2.986e-05 rev/day^2
Epoch rev:           98158
Checksum:              330

Satellite: ISS
Catalog number: 25544
Epoch time:      11314.94560883
Element set:     409
Inclination:      051.6398 deg
RA of node:       142.1044 deg
Eccentricity:    0.0021799
Arg of perigee:   044.4356 deg
Mean anomaly:     069.1254 deg
Mean motion:   15.59947707 rev/day
Decay rate:     2.8742e-04 rev/day^2
Epoch rev:           74382
Checksum:              323

Satellite: CO-58
Catalog number: 28895
Epoch time:      11313.68325273
Element set:      19
Inclination:      097.9438 deg
RA of node:       184.2735 deg
Eccentricity:    0.0018906
Arg of perigee:   122.2785 deg
Mean anomaly:     238.0273 deg
Mean motion:   14.60282315 rev/day
Decay rate:      1.531e-05 rev/day^2
Epoch rev:           32147
Checksum:              314

Satellite: FALCON
Catalog number: 30776
Epoch time:      11314.78938704
Element set:     212
Inclination:      035.4303 deg
RA of node:       175.1458 deg
Eccentricity:    0.0003056
Arg of perigee:   298.2448 deg
Mean anomaly:     061.7972 deg
Mean motion:   15.05594164 rev/day
Decay rate:      7.638e-05 rev/day^2
Epoch rev:           25714
Checksum:              307

Satellite: MAST
Catalog number: 31126
Epoch time:      11313.94739849
Element set:    0312
Inclination:      097.8870 deg
RA of node:       332.8718 deg
Eccentricity:    0.0095311
Arg of perigee:   076.7329 deg
Mean anomaly:     284.4478 deg
Mean motion:   14.53879137 rev/day
Decay rate:      1.102e-05 rev/day^2
Epoch rev:           24226
Checksum:              318

Satellite: CAPE1
Catalog number: 31130
Epoch time:      11313.86140822
Element set:    0318
Inclination:      097.8914 deg
RA of node:       329.3589 deg
Eccentricity:    0.0103365
Arg of perigee:   088.8070 deg
Mean anomaly:     272.4970 deg
Mean motion:   14.52561091 rev/day
Decay rate:      1.127e-05 rev/day^2
Epoch rev:           24178
Checksum:              293

Satellite: COMPASS
Catalog number: 32787
Epoch time:      11314.66390859
Element set:     141
Inclination:      097.8332 deg
RA of node:       015.6477 deg
Eccentricity:    0.0016592
Arg of perigee:   060.2658 deg
Mean anomaly:     300.0223 deg
Mean motion:   14.82951681 rev/day
Decay rate:      4.433e-05 rev/day^2
Epoch rev:           19126
Checksum:              297

Satellite: AAUSAT2
Catalog number: 32788
Epoch time:      11314.74284856
Element set:     132
Inclination:      097.8343 deg
RA of node:       015.9991 deg
Eccentricity:    0.0016326
Arg of perigee:   061.5381 deg
Mean anomaly:     298.7501 deg
Mean motion:   14.83182836 rev/day
Decay rate:      5.220e-05 rev/day^2
Epoch rev:           19129
Checksum:              315

Satellite: DO-64
Catalog number: 32789
Epoch time:      11313.75141274
Element set:    0148
Inclination:      097.8426 deg
RA of node:       016.3398 deg
Eccentricity:    0.0015913
Arg of perigee:   061.4040 deg
Mean anomaly:     298.8783 deg
Mean motion:   14.83959166 rev/day
Decay rate:      7.793e-05 rev/day^2
Epoch rev:           19116
Checksum:              342

Satellite: CO-66
Catalog number: 32791
Epoch time:      11313.83663712
Element set:    0137
Inclination:      097.8354 deg
RA of node:       014.7227 deg
Eccentricity:    0.0017039
Arg of perigee:   062.4609 deg
Mean anomaly:     297.8314 deg
Mean motion:   14.82546897 rev/day
Decay rate:      3.461e-05 rev/day^2
Epoch rev:           19108
Checksum:              326

